Wellsville, NY

3:35 PM EDT on September 26, 2017 (GMT -0400)
Wellsville Municipal-Tarantine

Weather History for KELZ - February, 2013

Change the Weather History Date:

Saturday, February 2, 2013

  Actual Average (KDSV) Record (KDSV)
Temperature  
Mean Temperature 11 °F -  
Max Temperature 16 °F 34 °F 57 °F (1989)
Min Temperature 6 °F 18 °F -16 °F (1961)
Degree Days  
Heating Degree Days 54    
Moisture  
Dew Point 5 °F    
Average Humidity 71    
Maximum Humidity 80    
Minimum Humidity 62    
Precipitation  
Precipitation 0.00 in - - ()
Sea Level Pressure  
Sea Level Pressure 30.00 in    
Wind  
Wind Speed 10 mph (SW)    
Max Wind Speed 15 mph    
Max Gust Speed 23 mph    
Visibility 5 miles    
Events Snow    
Averages and records for this station are not official NWS values.
T = Trace of Precipitation, MM = Missing Value Source: NWS Daily Summary

Daily Weather History Graph

Daily Weather History Graph

Search for Another Location

Airport or City:

Trip Planner

Search our weather history database for the weather conditions in past years. The results will help you decide how hot, cold, wet, or windy it might be!

Date:

Astronomy

Feb. 02, 2013 Rise Set
Actual Time 7:23 AM EST 5:28 PM EST
Civil Twilight 6:54 AM EST 5:57 PM EST
Nautical Twilight 6:20 AM EST 6:31 PM EST
Astronomical Twilight 5:47 AM EST 7:04 PM EST
Moon No Moon Rise 10:24 AM EST (2/2)
Length of Visible Light 11h 03m
Length of Day
10h 04m
Waning Gibbous, 60% of the Moon is Illuminated
Feb 2
Waning Gibbous
Feb 3
Last Quarter
Feb 10
New
Feb 17
First Quarter
Feb 25
Full

Hourly Weather History & Observations

Time (EST) Temp. Windchill Dew Point Humidity Pressure Visibility Wind Dir Wind Speed Gust Speed Precip Events Conditions
12:56 AM 8.1 °F -8.4 °F -0.0 °F 70% 30.21 in 10.0 mi WSW 13.8 mph 23.0 mph N/A   Clear
1:56 AM 7.0 °F -9.8 °F -0.0 °F 73% 30.21 in 10.0 mi WSW 13.8 mph 18.4 mph N/A   Clear
2:56 AM 7.0 °F -9.8 °F -0.0 °F 73% 30.22 in 10.0 mi WSW 13.8 mph 18.4 mph N/A   Clear
3:12 AM 6.8 °F -7.8 °F -0.4 °F 72% 30.08 in 10.0 mi WSW 10.4 mph - N/A   Mostly Cloudy
3:56 AM 8.1 °F -4.3 °F -0.0 °F 70% 30.21 in 10.0 mi WSW 8.1 mph - N/A   Overcast
4:56 AM 8.1 °F -0.5 °F -0.0 °F 70% 30.20 in 9.0 mi Variable 4.6 mph - 0.00 in   Overcast
5:56 AM 8.1 °F -2.0 °F -0.0 °F 70% 30.19 in 10.0 mi SSW 5.8 mph - N/A   Overcast
6:56 AM 8.1 °F -5.3 °F -0.9 °F 67% 30.19 in 10.0 mi WSW 9.2 mph - N/A   Overcast
7:56 AM 8.1 °F -5.3 °F -0.0 °F 70% 30.17 in 8.0 mi SW 9.2 mph - N/A   Overcast
8:56 AM 9.0 °F -5.9 °F -0.0 °F 67% 30.16 in 10.0 mi SSW 11.5 mph 17.3 mph N/A   Overcast
9:17 AM 8.6 °F -8.3 °F -0.4 °F 67% 30.02 in 10.0 mi SSW 15.0 mph 20.7 mph N/A   Overcast
9:48 AM 10.4 °F -2.4 °F 1.4 °F 67% 30.01 in 7.0 mi South 9.2 mph 16.1 mph N/A   Overcast
9:56 AM 10.0 °F -2.9 °F 1.0 °F 67% 30.14 in 9.0 mi SSW 9.2 mph 18.4 mph N/A   Overcast
10:56 AM 12.0 °F -1.3 °F 1.9 °F 64% 30.12 in 7.0 mi SSW 10.4 mph - 0.00 in   Overcast
11:15 AM 12.2 °F -1.0 °F 3.2 °F 67% 29.98 in 5.0 mi South 10.4 mph 19.6 mph N/A   Haze
11:48 AM 12.2 °F -1.8 °F 3.2 °F 67% 29.97 in 2.0 mi SSW 11.5 mph 20.7 mph 0.00 in Snow Light Snow
11:56 AM 12.9 °F -0.2 °F 3.9 °F 67% 30.09 in 2.0 mi SSW 10.4 mph 19.6 mph 0.00 in Snow Light Snow
12:05 PM 12.2 °F -2.5 °F 3.2 °F 67% 29.95 in 1.8 mi SW 12.7 mph 19.6 mph 0.00 in Snow Light Snow
12:42 PM 15.8 °F 3.4 °F 5.0 °F 62% 29.93 in 3.0 mi SW 10.4 mph 17.3 mph 0.00 in Snow Light Snow
12:56 PM 15.1 °F 5.2 °F 5.0 °F 64% 30.05 in 3.0 mi Variable 6.9 mph 19.6 mph 0.00 in Snow Light Snow
1:31 PM 15.8 °F 2.7 °F 6.8 °F 68% 29.91 in 1.8 mi SW 11.5 mph 20.7 mph 0.00 in Snow Light Snow
1:43 PM 15.8 °F 6.1 °F 6.8 °F 68% 29.90 in 2.5 mi SW 6.9 mph 17.3 mph 0.00 in Snow Light Snow
1:56 PM 16.0 °F 3.6 °F 6.1 °F 65% 30.03 in 3.0 mi South 10.4 mph 19.6 mph 0.00 in Snow Light Snow
2:17 PM 15.8 °F 3.4 °F 6.8 °F 68% 29.90 in 1.8 mi SSW 10.4 mph - 0.00 in Snow Light Snow
2:30 PM 15.8 °F 5.1 °F 6.8 °F 68% 29.89 in 2.5 mi SW 8.1 mph - 0.00 in Snow Light Snow
2:56 PM 15.1 °F 2.5 °F 7.0 °F 70% 30.01 in 2.0 mi SSW 10.4 mph - 0.00 in Snow Light Snow
3:12 PM 15.8 °F 6.1 °F 6.8 °F 68% 29.88 in 4.0 mi SSW 6.9 mph - 0.00 in Snow Light Snow
3:29 PM 15.8 °F 6.1 °F 6.8 °F 68% 29.88 in 2.0 mi SSW 6.9 mph - 0.00 in Snow Light Snow
3:36 PM 15.8 °F 5.1 °F 8.6 °F 73% 29.88 in 1.5 mi SSW 8.1 mph - 0.00 in Snow Light Snow
3:49 PM 15.8 °F 5.1 °F 8.6 °F 73% 29.88 in 2.0 mi SSW 8.1 mph 17.3 mph 0.00 in Snow Light Snow
3:56 PM 16.0 °F 5.3 °F 8.1 °F 71% 30.00 in 1.8 mi SSW 8.1 mph - 0.00 in Snow Light Snow
4:24 PM 15.8 °F 4.2 °F 8.6 °F 73% 29.88 in 2.0 mi SW 9.2 mph - 0.00 in Snow Light Snow
4:38 PM 15.8 °F 8.6 °F 8.6 °F 73% 29.88 in 2.0 mi SW 4.6 mph - 0.00 in Snow Light Snow
4:44 PM 15.8 °F 6.1 °F 8.6 °F 73% 29.88 in 1.8 mi SW 6.9 mph - 0.00 in Snow Light Snow
4:56 PM 15.1 °F 6.4 °F 9.0 °F 77% 30.00 in 1.5 mi SW 5.8 mph - 0.00 in Snow Light Snow
5:01 PM 15.8 °F 7.2 °F 8.6 °F 73% 29.88 in 3.0 mi Variable 5.8 mph - 0.00 in Snow Light Snow
5:14 PM 15.8 °F 5.1 °F 8.6 °F 73% 29.88 in 1.8 mi SW 8.1 mph - 0.00 in Snow Light Snow
5:30 PM 15.8 °F 5.1 °F 8.6 °F 73% 29.88 in 2.5 mi SSW 8.1 mph - 0.00 in Snow Light Snow
5:38 PM 15.8 °F 5.1 °F 8.6 °F 73% 29.88 in 4.0 mi SSW 8.1 mph - 0.00 in Snow Light Snow
5:56 PM 15.1 °F 7.7 °F 9.0 °F 77% 30.00 in 1.8 mi SSW 4.6 mph - 0.00 in Snow Light Snow
6:08 PM 15.8 °F - 8.6 °F 73% 29.88 in 2.5 mi Calm Calm - 0.00 in Snow Light Snow
6:41 PM 15.8 °F - 10.4 °F 79% 29.88 in 3.0 mi Calm Calm - 0.00 in Snow Light Snow
7:56 PM 15.1 °F - 10.0 °F 80% 30.01 in 9.0 mi Calm Calm - 0.00 in   Overcast
8:56 PM 16.0 °F - 10.0 °F 77% 30.00 in 6.0 mi Calm Calm - 0.00 in Snow Light Snow
9:56 PM 16.0 °F 10.4 °F 10.0 °F 77% 29.99 in 4.0 mi SSW 3.5 mph - 0.00 in Snow Light Snow
10:56 PM 15.1 °F 9.4 °F 10.0 °F 80% 29.98 in 4.0 mi SW 3.5 mph - 0.00 in Snow Light Snow
11:56 PM 15.1 °F 6.4 °F 10.0 °F 80% 29.97 in 10.0 mi SW 5.8 mph - 0.00 in   Overcast